TimeCDT,TemperatureF,Dew PointF,Humidity,Sea Level PressureIn,VisibilityMPH,Wind Direction,Wind SpeedMPH,Gust SpeedMPH,PrecipitationIn,Events,Conditions,WindDirDegrees,DateUTC
12:56 AM,35.1,28.0,76,30.17,10.0,ESE,4.6,-,N/A,,Overcast,110,2012-11-03 05:56:00
1:56 AM,35.1,28.0,76,30.18,10.0,Calm,Calm,-,N/A,,Overcast,0,2012-11-03 06:56:00
2:56 AM,36.0,28.0,73,30.18,10.0,Calm,Calm,-,N/A,,Overcast,0,2012-11-03 07:56:00
3:56 AM,37.0,28.9,73,30.16,10.0,ENE,5.8,-,N/A,,Overcast,70,2012-11-03 08:56:00
4:56 AM,37.0,28.9,73,30.17,10.0,ENE,3.5,-,N/A,,Overcast,60,2012-11-03 09:56:00
5:56 AM,37.0,28.9,73,30.19,10.0,ENE,5.8,-,N/A,,Overcast,60,2012-11-03 10:56:00
6:56 AM,36.0,28.9,76,30.20,10.0,ENE,5.8,-,N/A,,Overcast,70,2012-11-03 11:56:00
7:56 AM,36.0,28.0,73,30.22,10.0,ENE,4.6,-,N/A,,Overcast,70,2012-11-03 12:56:00
8:56 AM,36.0,27.0,70,30.24,10.0,ENE,8.1,-,N/A,,Overcast,70,2012-11-03 13:56:00
9:56 AM,37.0,27.0,67,30.25,10.0,East,6.9,-,N/A,,Overcast,100,2012-11-03 14:56:00
10:56 AM,39.0,28.9,67,30.25,10.0,ENE,4.6,-,N/A,,Mostly Cloudy,70,2012-11-03 15:56:00
11:56 AM,41.0,28.9,62,30.26,10.0,Calm,Calm,-,N/A,,Mostly Cloudy,0,2012-11-03 16:56:00
12:56 PM,42.1,28.9,60,30.24,10.0,Calm,Calm,-,N/A,,Overcast,0,2012-11-03 17:56:00
1:56 PM,44.1,28.9,55,30.22,10.0,Variable,3.5,-,N/A,,Overcast,0,2012-11-03 18:56:00
2:56 PM,45.0,28.0,52,30.20,10.0,Variable,3.5,-,N/A,,Overcast,0,2012-11-03 19:56:00
3:56 PM,46.0,28.0,50,30.20,10.0,Calm,Calm,-,N/A,,Mostly Cloudy,0,2012-11-03 20:56:00
4:56 PM,45.0,28.0,52,30.20,10.0,Calm,Calm,-,N/A,,Overcast,0,2012-11-03 21:56:00
5:56 PM,43.0,30.0,60,30.20,10.0,Calm,Calm,-,N/A,,Overcast,0,2012-11-03 22:56:00
6:56 PM,37.9,30.0,73,30.21,10.0,Calm,Calm,-,N/A,,Overcast,0,2012-11-03 23:56:00
7:56 PM,37.0,30.9,79,30.22,10.0,ESE,3.5,-,N/A,,Overcast,110,2012-11-04 00:56:00
8:56 PM,37.0,30.9,79,30.23,10.0,Calm,Calm,-,N/A,,Overcast,0,2012-11-04 01:56:00
9:56 PM,37.0,30.9,79,30.24,10.0,Calm,Calm,-,N/A,,Overcast,0,2012-11-04 02:56:00
10:56 PM,37.0,30.9,79,30.23,10.0,Calm,Calm,-,N/A,,Overcast,0,2012-11-04 03:56:00
11:56 PM,36.0,30.9,82,30.23,10.0,East,3.5,-,N/A,,Overcast,100,2012-11-04 04:56:00